Location: Curupao
(10.4996°N, 66.6442°W)
Time: 00:46:48
(UTC+00:00)

Hubble Space Telescope - Visible Passes

Search period start: 18 July 2024 00:00
Search period end: 28 July 2024 00:00
Orbit: 510 x 513 km, 28.5° (Epoch: 17 July)

Date Brightness Start Highest point End Pass type
(mag) Time Alt. Az. Time Alt. Az. Time Alt. Az.
22 Jul 3.7 01:19:09 10° NW 01:19:45 13° NNW 01:19:45 13° NNW visible
23 Jul 3.0 00:59:32 10° NW 01:01:13 21° NNW 01:01:13 21° NNW visible
24 Jul 2.0 00:39:55 10° NW 00:42:42 33° N 00:42:42 33° N visible
25 Jul 1.2 00:20:18 10° NW 00:24:07 46° NNE 00:24:13 46° NNE visible
26 Jul 0.9 00:00:41 10° NW 00:04:35 56° NNE 00:05:46 38° E visible
26 Jul 0.7 23:41:05 10° NW 23:45:01 69° NNE 23:47:21 23° ESE visible
27 Jul 0.6 23:21:28 10° WNW 23:25:26 84° NNE 23:28:57 13° ESE visible
